Location: Gourdan-Polignan
(43.0709°N, 0.5748°E)
Time: 08:17:30
(UTC+00:00)

Cosmos 1634 Rocket - Pass Details

Date: 15 May 2026
Orbit: 960 x 990 km, 82.9° (Epoch: 5 June)

Event Time Altitude Azimuth Distance (km) Brightness Sun altitude
Exits shadow 22:22:33 55° 149° (SSE) 1,142 3.9 -24.4°
Maximum altitude 22:23:47 69° 94° (E) 1,028 3.9 -24.5°
Drops below altitude 10° 22:29:56 10° 13° (NNE) 2,716 7.0 -24.9°
Sets 22:32:28 0° 11° (N) 3,670 7.9 -25.1°
